sat.trackr.live / text

‹ back to catalog

STARLINK-37086

NORAD 68253 · 2026-054X

PAYLOAD ACTIVE UNKNOWN

§ Identity

Operator
Country
US
Launch date
2026-03-17
Launch site
AFETR
Launch vehicle
Mass (kg)
RCS (m²)

Purposes: comms

External: N2YO · Heavens-Above · Gunter

§ Orbital elements

Epoch: 2026-05-24T20:38:32.652960Z

Period
92.94 min
Inclination
53.1576°
Eccentricity
0.0001018
Mean motion
15.49326595 rev/d
Perigee alt
418.0 km
Apogee alt
419.4 km
Semi-major
6,796.8 km
B*
1.0986e-3
RAAN
299.5481°
Arg perigee
62.8123°
Mean anomaly
297.2989°
Rev number
1,070

§ Raw data

STARLINK-370861 68253U 26054X   26144.86010015  .00061167  00000+0  10986-2 0  99952 68253  53.1576 299.5481 0001018  62.8123 297.2989 15.49326595 10706

JSON: /api/v1/satellites/68253 · /tle

For live sub-satellite position, see the globe view (requires WebGL).

§ Visibility from observer

Set your observer location to see the next 7 days of passes ≥ 10°. The values pass through the URL so the page stays shareable.

No JS? Fill the form by hand. The geolocation button needs JavaScript.